Flag for Vietnam Weather past 2 weeks in Hanoi, Vietnam

Now
75 °F

Partly cloudy.


Feels Like: 77 °F
Forecast: 72 / 76 °F
Wind: 3 mph from North

Location: Ha Noi Airport

Current Time: Oct 24, 2014 at 4:06:06 AM

Latest Report: Oct 24, 2014 at 3:30 AM


Visibility: N/A

Pressure: 29.95 "Hg

Humidity: 69%

Dew point: 64 °F

Location of HanoiLocation

Historic Weather in Hanoi — Graph

°F

Hanoi temperature yesterday

Maximum temperature yesterday: 81 °F (at 9:00 AM)
Minimum temperature yesterday: 75 °F (at 12:00 AM)
Average temperature yesterday: 77 °F

Past Weeks' High & Low Weather Summary

 TemperatureHumidityPressure
High90 °F (Oct 20, 2:30 PM)100% (Oct 9, 4:30 AM)30.15 "Hg (Oct 9, 4:30 AM)
Low68 °F (Oct 15, 4:00 AM)38% (Oct 12, 2:00 PM)29.80 "Hg (Oct 10, 2:00 PM)
Average79 °F72%29.98 "Hg
* Reported Oct 9 3:00 AM — Oct 24 3:00 AM, Hanoi, Weather by CustomWeather, © 2014

Note: Actual official high and low records may vary slightly from our data, if they occured in-between our weather recording intervals... More about our weather records

Advertising

Hanoi weather history for previous 24 hours

 ConditionsComfort  
Time TempWeatherWind HumidityBarometerVisibility
3:00 AM
Oct 24
75 °FPartly cloudy.3 mph69%29.95 "Hg6 mi
2:30 AM75 °FPartly cloudy.3 mph74%29.95 "Hg6 mi
2:00 AM75 °FPassing clouds.3 mph74%29.98 "Hg6 mi
1:30 AM75 °FClear.2 mph69%29.98 "Hg6 mi
1:00 AM75 °FClear.2 mph74%29.98 "Hg6 mi
12:30 AM75 °FClear.3 mph74%29.98 "Hg6 mi
12:00 AM75 °FClear.3 mph74%30.01 "Hg6 mi
11:30 PM
Oct 23
75 °FPassing clouds.3 mph74%30.01 "Hg6 mi
11:00 PM75 °FClear.3 mph74%30.01 "Hg6 mi
10:30 PM75 °FClear.3 mph74%30.01 "Hg6 mi
10:00 PM75 °FClear.5 mph74%30.01 "Hg6 mi
9:30 PM75 °FClear.5 mph74%30.01 "Hg10 mi
9:00 PM77 °FClear.5 mph69%30.01 "Hg10 mi
8:30 PM77 °FClear.2 mph65%29.98 "Hg5 mi
8:00 PM77 °FClear.2 mph65%29.98 "Hg6 mi
7:30 PM77 °FClear.5 mph65%29.98 "Hg5 mi
7:00 PM77 °FPassing clouds.5 mph65%29.95 "Hg6 mi
6:30 PM77 °FClear.3 mph65%29.95 "Hg10 mi
6:00 PM77 °FClear.5 mph65%29.92 "Hg10 mi
5:30 PM77 °FClear.3 mph65%29.92 "Hg10 mi
5:00 PM79 °FSunny.6 mph61%29.92 "Hg10 mi
4:30 PM79 °FPassing clouds.6 mph61%29.92 "HgN/A
4:00 PM79 °FPassing clouds.7 mph61%29.92 "HgN/A
3:00 PM79 °FPassing clouds.5 mph65%29.95 "HgN/A
2:30 PM79 °FPartly sunny.5 mph65%29.95 "HgN/A
2:00 PM81 °FPartly sunny.6 mph62%29.95 "HgN/A
1:30 PM79 °FBroken clouds.6 mph61%29.98 "Hg4 mi
1:00 PM81 °FPartly sunny.7 mph62%29.98 "HgN/A
12:30 PM81 °FBroken clouds.7 mph62%30.01 "HgN/A
12:00 PM79 °FBroken clouds.7 mph61%30.01 "HgN/A
11:30 AM81 °FPartly sunny.8 mph58%30.04 "HgN/A
11:00 AM81 °FPartly sunny.7 mph58%30.04 "HgN/A
10:30 AM81 °FPartly sunny.9 mph58%30.04 "HgN/A
10:00 AM81 °FPartly sunny.9 mph62%30.07 "HgN/A
9:30 AM81 °FLight rain. Partly sunny.9 mph62%N/AN/A
9:00 AM81 °FPartly sunny.9 mph62%30.04 "HgN/A
8:30 AM79 °FPartly sunny.7 mph65%30.04 "HgN/A
8:00 AM77 °FLight rain. Partly sunny.7 mph69%30.04 "HgN/A
7:30 AM77 °FLight rain. Partly sunny.7 mph74%30.04 "HgN/A
7:00 AM77 °FLight rain. Partly sunny.7 mph69%30.01 "HgN/A
6:30 AM75 °FSunny.7 mph89%30.01 "Hg10 mi
6:00 AM75 °FSunny.6 mph89%30.01 "Hg10 mi
5:30 AM75 °FClear.3 mph89%29.98 "Hg6 mi
5:00 AM75 °FClear.3 mph89%29.98 "Hg6 mi
4:30 AM75 °FClear.5 mph89%29.98 "Hg6 mi
4:00 AM75 °FClear.5 mph89%29.98 "Hg6 mi
Weather by CustomWeather, © 2014

See weather overviewHow to use our weather pages